www.pogodaiklimat.ru

Погода и климат >> Архив погоды >> Индия >> Bhuj-Rudramata


ПОГОДА в Bhuj-Rudramata

  • Прогноз погоды в Bhuj-Rudramata
  • Монитор погоды в Bhuj-Rudramata
  • Климат города

АРХИВ ПОГОДЫ в Bhuj-Rudramata

Время (UTC), дата Ветер
(напр.,м/с)
 
Видим.   Явления Облачность Т
(С)
Тd
(С)
f
(%)
Тe
(С)
Тes
(С)
Комфортность P
(гПа)
Po
(гПа)
Тmin
(С)
Tmax
(С)
R
(мм)
R24
(мм)
S
(см)
09 18.09 З 2 4000 м 5/5 600 м
[Sc]
+34.2 +19.0 41 +39 +48 очень
душно
1007.2 1007.0
12 18.09 ЮЗ 3 4000 м 8/8 600 м
[Cu Sc]
+30.4 +21.8 60 +39 +39 очень
душно
1006.2 1006.0 +36.6
15 18.09 ЮЗ 1 4000 м 4/4 600 м
[Sc]
+29.0 +22.2 67 +38 +38 очень
душно
1007.7 1008.0
18 18.09 З 1 4000 м ясно +27.0 +22.6 77 +36 +36 очень
душно
1008.6 1009.0
21 18.09 З 1 4000 м ясно +25.8 +23.2 86 +35 +35 очень
душно
1008.0 1008.0
00 19.09 З 1 4000 м ясно +25.2 +23.4 90 +34 +34 очень
душно
1007.8 1008.0
03 19.09 штиль 0 4000 м ясно +25.6 +23.3 87 +34 +39 очень
душно
1010.2 1010.0 +24.5
06 19.09 З 2 4000 м ясно +31.0 +21.2 56 +39 +56 опасность
солнечного
удара
1010.2 1010.0
09 19.09 З 2 4000 м ясно +33.2 +17.3 39 +37 +53 опасность
солнечного
удара
1007.5 1008.0
12 19.09 З 2 4000 м 5/5 600 м
[Sc]
+35.6 +19.0 38 +40 +42 очень
душно
1004.8 1005.0 +36.4
15 19.09 ЮЗ 2 4000 м ясно +30.8 +19.9 52 +37 +37 очень
душно
1005.6 1006.0
18 19.09 ЮЗ 1 4000 м ясно +26.4 +23.2 83 +36 +36 очень
душно
1007.6 1008.0
21 19.09 штиль 0 4000 м ясно +25.4 +23.3 88 +34 +34 очень
душно
1007.0 1007.0
00 20.09 ЮЗ 1 4000 м 3/3 600 м
[Sc]
+24.8 +23.6 93 +34 +34 очень
душно
1006.9 1007.0
03 20.09 В 1 4000 м 1/1 540 м
[Frnb]
+26.4 +22.9 81 +35 +38 очень
душно
1008.5 1009.0 +24.3
06 20.09 нст 1 4000 м ясно +31.6 +21.6 55 +40 +60 опасность
солнечного
удара
1008.4 1008.0
09 20.09 ЮЗ 1 4000 м 4/4 600 м
[Sc]
+35.6 +20.8 42 +42 +53 опасность
перегрева
1006.5 1007.0
12 20.09 ЮЗ 2 4000 м 5/5 600 м
[Sc]
+37.0 +19.7 37 +43 +44 опасность
перегрева
1004.0 1004.0 +38.0
15 20.09 З 2 4000 м 4/4 600 м
[Sc]
+31.0 +20.1 52 +37 +37 очень
душно
1006.0 1006.0
18 20.09 З 1 4000 м 1/1 600 м
[Sc]
+28.0 +21.4 67 +35 +35 очень
душно
1007.4 1007.0
21 20.09 З 1 4000 м ясно +26.2 +22.3 79 +34 +34 очень
душно
1006.5 1007.0
00 21.09 З 2 4000 м ясно +25.0 +22.6 87 +33 +33 очень
душно
1006.2 1006.0
03 21.09 ЮЗ 1 4000 м 3/3 600 м
[Sc]
+25.8 +23.2 86 +35 +37 очень
душно
1007.4 1007.0 +24.6
06 21.09 ЮЗ 1 4000 м ясно +32.0 +19.6 48 +38 +57 опасность
солнечного
удара
1007.4 1007.0
09 21.09 З 1 4000 м 3/3 600 м
[Sc]
+37.8 +16.7 29 +40 +53 опасность
солнечного
удара
1005.1 1005.0
12 21.09 ЮЗ 1 4000 м 3/3 600 м
[Sc]
+37.6 +14.2 25 +38 +40 очень
жарко
1003.6 1004.0 +40.2
15 21.09 ЮЗ 2 4000 м ясно +31.0 +18.7 48 +36 +36 очень
душно
1005.3 1005.0
18 21.09 З 1 4000 м ясно +30.0 +21.0 59 +38 +38 очень
душно
1006.3 1006.0
21 21.09 З 1 4000 м ясно +27.8 +21.5 69 +36 +36 очень
душно
1005.7 1006.0
00 22.09 З 1 4000 м ясно +26.6 +21.8 75 +34 +34 очень
душно
1004.7 1005.0
03 22.09 З 1 4000 м 3/3 600 м
[Sc]
+27.4 +23.6 80 +37 +40 очень
душно
1006.1 1006.0 +25.6
06 22.09 З 2 4000 м 3/3 600 м
[Sc]
+35.4 +16.7 33 +38 +49 очень
душно
1006.3 1006.0
09 22.09 З 2 4000 м 3/3 600 м
[Sc]
+39.4 +13.7 22 +40 +50 очень
душно
1003.7 1004.0
12 22.09 З 3 4000 м 8/8 600 м
[Cu Sc]
+39.0 +12.0 20 +38 +39 очень
жарко
1001.9 1002.0 +40.4
15 22.09 ЮЗ 1 4000 м 6/6 600 м
[Sc]
+36.2 +17.4 33 +39 +39 очень
душно
1003.6 1004.0
18 22.09 ЮЗ 1 4000 м 3/3 600 м
[Sc]
+31.0 +21.9 58 +39 +39 очень
душно
1005.7 1006.0
21 22.09 ЮЗ 1 4000 м 3/3 600 м
[Sc]
+28.8 +22.0 67 +37 +37 очень
душно
1005.1 1005.0
00 23.09 штиль 0 4000 м 3/3 600 м
[Sc]
+27.6 +22.3 73 +36 +36 очень
душно
1005.0 1005.0
03 23.09 штиль 0 4000 м 5/5 600 м
[Sc]
+28.8 +21.7 66 +37 +39 очень
душно
1007.5 1008.0 +28.0
06 23.09 штиль 0 4000 м 5/5 600 м
[Sc]
+35.8 +21.1 43 +43 +54 опасность
перегрева
1008.2 1008.0
09 23.09 нст 1 4000 м 3/0
[Ac trans Ci fib]
+39.8 +16.2 25 +42 +57 опасность
перегрева
1005.2 1005.0
12 23.09 нст 1 2000 м гроза, ливневой дождь 8/5 600 м
[Cb cap Ac trans]
+29.4 +23.0 68 +39 +40 очень
душно
1006.1 1006.0 +40.2 1
15 23.09 СЗ 2 4000 м {дождь} 9/6 540 м
[Frnb Ac trans]
+29.6 +22.9 67 +39 +39 очень
душно
1007.3 1007.0 2
18 23.09 штиль 0 4000 м 8/5 600 м
[Sc Ac trans]
+28.0 +24.6 82 +40 +40 очень
душно
1009.4 1009.0 2
21 23.09 штиль 0 4000 м 8/6 750 м
[Sc Ac trans]
+26.2 +24.2 89 +36 +36 очень
душно
1008.7 1009.0 2
00 24.09 нст 1 4000 м 6/6 600 м
[Sc Ac trans]
+25.8 +24.4 92 +36 +36 очень
душно
1009.2 1009.0 2
03 24.09 З 1 4000 м 6/3 540 м
[Frnb Ac trans]
+27.0 +23.8 83 +37 +39 очень
душно
1009.8 1010.0 +25.7 2
06 24.09 нст 1 4000 м ясно +32.4 +21.1 51 +40 +60 опасность
солнечного
удара
1010.2 1010.0
09 24.09 ЮЗ 2 4000 м 4/4 600 м
[Sc]
+36.6 +20.3 39 +43 +52 опасность
перегрева
1008.3 1008.0
12 24.09 ЮЗ 2 4000 м 4/4 600 м
[Sc]
+35.0 +21.2 45 +43 +44 опасность
перегрева
1007.0 1007.0 +37.4
15 24.09 ЮЗ 2 4000 м 1/0
[Ci fib]
+28.8 +23.9 75 +40 +40 очень
душно
1009.1 1009.0
18 24.09 ЮЗ 2 4000 м ясно +26.6 +23.7 84 +36 +36 очень
душно
1010.1 1010.0
21 24.09 ЮЗ 1 4000 м 3/3 600 м
[Sc]
+25.6 +23.6 89 +35 +35 очень
душно
1009.2 1009.0
00 25.09 ЮЗ 1 4000 м ясно +24.8 +22.7 88 +33 +33 очень
душно
1009.1 1009.0
03 25.09 ЮЗ 1 4000 м ясно +25.4 +23.3 88 +34 +37 очень
душно
1009.9 1010.0 +24.4
06 25.09 ЮЗ 1 4000 м ясно +32.4 +21.5 53 +41 +59 опасность
перегрева
1010.4 1010.0

 

Местоположение метеостанции Bhuj-Rudramata (Gujarat, Индия): широта 23.25 долгота 69.67 высота над уровнем моря 80 м.

В архиве по умолчанию представлена погода в Bhuj-Rudramata за последнюю неделю. Архивные данные за месяц целиком и за предыдущие месяцы, начиная с января 2011 года, Вы можете получить, выбрав интересующий диапазон дат из раскрывающегося списка и нажав кнопку "Ввод!".


*Определитесь, кто Вы:
робот инопланетянин человек

Внимание! Время в таблицах - всемирное. Для получения местного времени необходимо прибавить поправку, которая в Bhuj-Rudramata равна 5.5 ч.

Смотрите также архив погоды в соседних городах и на ближайших метеорологических станциях:

Погода в Kandla (Gujarat, Индия) (47 км)
Погода в New Kandla (Gujarat, Индия) (63 км)
Погода в Mandvi (Gujarat, Индия) (63 км)
Погода в Naliya (Gujarat, Индия) (84 км)
Погода в Okha (Gujarat, Индия) (103 км)
Погода в Dwarka (Gujarat, Индия) (115 км)
Погода в Rajkot (Gujarat, Индия) (155 км)
Погода в Badin (Пакистан) (172 км)
Погода в Porbandar (Gujarat, Индия) (178 км)
Погода в Surendranagar (Gujarat, Индия) (206 км)

Пояснения к столбцам:

Ветер - указаны скорость ветра в м/с - средняя за 10 мин, порывы в срок и между сроками (в фигурных скобках) и направление, откуда дует ветер: С - северный, СВ - северо-восточный, В - восточный, ЮВ - юго-восточный, Ю - южный, ЮЗ - юго-западный, З - западный, СЗ - северо-западный.
Видимость - горизонтальная дальность видимости в метрах или километрах. При видимости от 1 до 10 км при отсутствии осадков обычно наблюдается дымка, при ухудшении видимости до 1 км и менее - туман. В сухую погоду видимость может ухудшаться дымом, пылью или мглою.
Явления - указаны атмосферные явления, наблюдавшиеся в срок или в последний час перед сроком; фигурными скобками обозначены явления, наблюдавшиеся между сроками (за 1-3 часа до срока); квадратными скобками обозначены град или гололедные отложения с указанием их диаметра в мм.
Облачность - указаны через наклонную черту общая и нижняя облачность в баллах и высота нижней границы облаков в метрах; квадратными скобками обозначены формы облаков: Ci - перистые, Cs - перисто-слоистые, Cc - перисто-кучевые, Ac - высококучевые, As - высокослоистые, Sc - слоисто-кучевые, Ns - слоисто-дождевые, Cu - кучевые, Cb - кучево-дождевые. Подробнее классификацию облаков см. в Атласе облаков (PDF).
T - Температура воздуха - температура, измеренная на высоте 2 м над землей.
Td - Температура точки росы - температура, при понижении до которой содержащийся в воздухе водяной пар достигнет насыщения.
f - Относительная влажность воздуха - влажноcть воздуха, измеренная на высоте 2 м над землей.
Te - Эффективная температура - температура, которую ощущает одетый по сезону человек в тени. Характеристика душности погоды. При расчете учитывается влияние влажности воздуха и скорости ветра на теплоощущения человека.
Tes - Эффективная температура на солнце - температура, которую ощущает человек, с поправкой на солнечный нагрев. Характеристика знойности погоды. Зависит от высоты солнца над горизонтом, облачности и скорости ветра. Ночью, в пасмурную погоду, а также при ветре 12 м/с и более поправка равна нулю.
P - Атмосферное давление - приведенное к уровню моря атмосферное давление.
Po - Атмосферное давление - измеренное на уровне метеостанции атмосферное давление.
Tmin - Минимальная температура - минимум температуры воздуха на высоте 2 м над землей.
Tmax - Максимальная температура - максимум температуры воздуха на высоте 2 м над землей.
R - Количество осадков - Количество выпавших осадков за период времени, мм. При наведении курсора мыши на число - период времени, за который выпало указанное количество осадков.
R24 - Количество осадков - Количество выпавших осадков за 24 часа, мм.
S - Снежный покров - Высота снежного покрова, см. При наведении курсора мыши на число - состояние снежного покрова и степень покрытия местности в баллах.